Regional Weather Roundup
Issued by NWS

Home | Current Version | Previous Version | Text Only | Print | Product List | Glossary Off
Versions: 1 2 3 4 5 6 7 8 9 10 11 12 13 14 15 16 17 18 19 20 21 22 23 24 25 26 27 28

000
ASUS45 KCYS 312110
RWRWY

WYOMING REGIONAL WEATHER ROUNDUP
NATIONAL WEATHER SERVICE CHEYENNE WY
300 PM MDT FRI OCT 31 2014

NOTE:  "FAIR" INDICATES FEW OR NO CLOUDS BELOW 12,000 FEET
WITH NO SIGNIFICANT WEATHER AND/OR OBSTRUCTIONS TO VISIBILITY.

WYZ001-312200-
YELLOWSTONE NATIONAL PARK

CITY           SKY/WX    TMP DP  RH WIND       PRES   REMARKS
LK YELLOWSTONE   N/A     56  25  30 W9        30.03
W YELLOWSTONE  NOT AVBL

$$
WYZ002>013-054>058-071-098>099-312200-
NORTHERN WYOMING

CITY           SKY/WX    TMP DP  RH WIND       PRES   REMARKS
JACKSON        SUNNY     64  27  24 S9        29.98F
CODY           PTSUNNY   64  30  27 SE7       29.87
GREYBULL       CLOUDY    67  27  22 S8        29.86F
WORLAND        PTSUNNY   70  27  20 W5        29.87F
SHERIDAN       CLOUDY    49  31  49 W7        29.88F
BUFFALO        CLOUDY    61  29  29 S5        29.88F
GILLETTE       PTSUNNY   55  31  39 SE30G40   29.92F
HULETT         FAIR      57  30  35 S16G23    29.97
NEWCASTLE      FAIR      50  28  43 SE22G32   30.06

$$
WYZ014>020-022>026-101>103-312200-
CENTRAL WYOMING

CITY           SKY/WX    TMP DP  RH WIND       PRES   REMARKS
BIG PINEY      SUNNY     63  22  20 S17       30.03F
PINEDALE       CLEAR     59  23  25 SE5       30.05
DUBOIS         FAIR      59  21  23 W20       30.01F HAZE
LANDER         MOSUNNY   58  28  32 N5        29.96F
RIVERTON       MOSUNNY   58  26  29 SE3       29.98F
CASPER         MOSUNNY   66  23  19 SW13      29.98F
DOUGLAS        PTSUNNY   60  30  32 SE22G32   30.02F

$$
WYZ021-027>030-104>119-312200-
SOUTHERN WYOMING

CITY           SKY/WX    TMP DP  RH WIND       PRES   REMARKS
EVANSTON       MOSUNNY   66  16  14 SW23G41   30.02F
KEMMERER       CLEAR     63  23  22 SE6       30.04F
FORT BRIDGER   FAIR      63  25  23 E7        30.06F
ROCK SPRINGS   SUNNY     64  22  20 S24G30    30.03F
RAWLINS        MOSUNNY   65  21  18 SW24G40   30.07F
SARATOGA       FAIR      59  23  25 S6G21     30.13S
LARAMIE        PTSUNNY   64  20  18 SW16G24   30.10F
CHEYENNE       PTSUNNY   51  28  41 S17G26    30.15F
TORRINGTON     MOSUNNY   59  31  34 S24G32    30.09F
PINE BLUFFS    FAIR      52  30  43 S14G26    30.16F

$$



USA.gov is the U.S. government's official web portal to all federal, state and local government web resources and services.